• Join FlightAware (Why Join?)
  • Login
  • US Flag 
04:27AM EDT


 

Airport Tracker/Info


-or-


 

Live Flight TrackerFlight Track Log ✈ CTL17 ✈ 09-May-2013 ✈ KMBS - KYIP

Flight Track Log - Related Links

Times and Time Zones

All times are in EDT time to prevent confusion due to time zone crossing. See the CTL17 flight status page for this flight to view local times or setup timezone preferences in your user account.

Time Position Orientation Groundspeed Altitude Reporting Facility
EDT Latitude Longitude Course Direction KTS MPH feet Rate Location/Type
04:51PM 43.3619 -84.0057 160° South  Level Estimated
04:52PM 43.3366 -83.9838 148° Southeast  Level FlightAware Approximate
04:53PM 43.3080 -83.9718 160° South  Level Estimated
04:54PM 43.2807 -83.9553 156° South  Level FlightAware Approximate
04:55PM 43.2533 -83.9388 156° South  Level FlightAware Approximate
04:56PM 43.2247 -83.9271 163° South  Level Estimated
04:57PM 43.1965 -83.9134 161° South  Level FlightAware Approximate
04:57PM 42.9822 -83.8044 160° South 166 191 5,000  Level Cleveland Center
04:58PM 43.1683 -83.8997 161° South  Level FlightAware Approximate
04:58PM 42.9553 -83.7917 161° South 168 193 5,100  Level Cleveland Center
04:59PM 43.1401 -83.8861 161° South  Level FlightAware Approximate
04:59PM 42.9100 -83.7753 165° South 165 190 5,000  Level Cleveland Center
05:00PM 43.1115 -83.8746 160° South  Level Estimated
05:00PM 42.8667 -83.7589 165° South 169 194 5,000  Level Cleveland Center
05:01PM 43.0835 -83.8603 160° South  Level FlightAware Approximate
05:01PM 42.8175 -83.7308 157° South 168 193 5,100  Level Cleveland Center
05:02PM 43.0555 -83.8461 160° South  Level FlightAware Approximate
05:02PM 42.7719 -83.7144 165° South 172 198 5,100  Level Cleveland Center
05:03PM 43.0275 -83.8318 160° South  Level FlightAware Approximate
05:03PM 42.7244 -83.6978 166° South 168 193 5,100  Level Cleveland Center
05:04PM 42.6811 -83.6817 165° South 166 191 5,100 -60 Level Cleveland Center
05:05PM 42.6317 -83.6650 166° South 173 199 5,000 -240 Descending Cleveland Center
05:06PM 42.5864 -83.6403 158° South 182 209 4,700 -480 Descending Cleveland Center
05:07PM 42.5372 -83.6042 152° Southeast 188 216 4,100 -600 Descending Cleveland Center
05:08PM 42.4942 -83.5794 157° South 186 214 3,600 -420 Descending Cleveland Center
05:09PM 42.4508 -83.5633 165° South 173 199 3,400 -300 Descending Cleveland Center
05:10PM 42.4011 -83.5469 166° South 177 204 3,100 -360 Descending Cleveland Center
05:11PM 42.3597 -83.5339 167° South 165 190 2,800 -480 Descending Cleveland Center
05:12PM 42.3139 -83.5317 178° South 160 184 2,200 -600 Descending Cleveland Center
05:13PM 42.2725 -83.5269 181° South 133 153 1,600 -600 Descending Cleveland Center
05:14PM 42.2731 -83.5331 181° South  Level FlightAware Approximate
05:16PM 42.2333 -83.5167 160° South  Level FlightAware Approximate
05:23PM 42.2393 -83.5310 160° South  Level Estimated